Hourly Data Report for October 27, 2014

All times are specified in Local Standard Time (LST). Add 1 hour to adjust for Daylight Saving Time where and when it is observed.

BAKER LAKE A
NUNAVUT

64°17'56.000" N
96°04'40.000" W
18.60 m
2300503
71926
YBK

Download Data

Hourly Data (October 2014)
Hourly Data Report for October 27, 2014
Temp Definition
°C
Dew Point Temp Definition
°C
Rel Hum Definition
%
Wind Dir Definition
10's deg

Wind Spd Definition
km/h
Visibility Definition
km
Stn Press Definition
kPa
Hmdx Definition


Wind Chill Definition


Weather Definition


TIME
00:00 Legend Double Dagger -8.3 -10.2 86 32 31 24.1 101.31   -17 Snow
01:00 Legend Double Dagger -8.2 -10.1 86 32 29 24.1 101.36   -17 Snow
02:00 Legend Double Dagger -8.2 -10.0 87 33 28 24.1 101.36   -17 Snow
03:00 Legend Double Dagger -7.9 -9.9 86 33 26 24.1 101.41   -16 Snow
04:00 Legend Double Dagger -7.8 -9.8 86 33 28 24.1 101.44   -16 Snow
05:00 Legend Double Dagger -7.8 -9.9 85 33 30 24.1 101.46   -17 Snow
06:00 Legend Double Dagger -7.8 -9.9 85 34 25 24.1 101.47   -16 Snow
07:00 Legend Double Dagger -7.7 -10.0 84 33 30 24.1 101.48   -17 Snow
08:00 Legend Double Dagger -7.8 -10.1 84 33 21 32.2 101.51   -15 LegendNANA
09:00 Legend Double Dagger -7.8 -10.4 82 33 27 32.2 101.57   -16 Cloudy
10:00 Legend Double Dagger -7.7 -10.0 84 33 26 32.2 101.59   -16 LegendNANA
11:00 Legend Double Dagger -7.9 -10.3 83 32 27 32.2 101.61   -16 LegendNANA
12:00 Legend Double Dagger -8.4 -10.8 83 34 25 32.2 101.65   -17 Mostly Cloudy
13:00 Legend Double Dagger -9.9 -12.1 84 33 21 24.1 101.69   -18 Blowing Snow
14:00 Legend Double Dagger -9.3 -11.5 84 34 24 24.1 101.70   -18 LegendNANA
15:00 Legend Double Dagger -8.5 -10.6 85 32 19 32.2 101.71   -16 Snow
16:00 Legend Double Dagger -8.8 -10.6 87 35 15 32.2 101.74   -15 Snow
17:00 Legend Double Dagger -9.0 -10.4 90 35 16 24.1 101.76   -16 Snow
18:00 Legend Double Dagger -8.9 -10.7 87 35 17 24.1 101.73   -16 Snow
19:00 Legend Double Dagger -9.2 -11.1 86 33 18 24.1 101.77   -16 Snow
20:00 Legend Double Dagger -9.3 -11.4 85 35 16 24.1 101.77   -16 Snow
21:00 Legend Double Dagger -9.1 -11.0 86 34 14 24.1 101.77   -15 Snow
22:00 Legend Double Dagger -9.1 -11.2 85 34 10 24.1 101.76   -14 Snow
23:00 Legend Double Dagger -9.0 -11.1 85 34 8 24.1 101.78   -13 LegendNANA

Notes on Data Quality.

Legend

  • E = Estimated
  • M = Missing
  • NA = Not Available
  • ‡ = Partner data that is not subject to review by the National Climate Archives
Date modified: